Regional Weather Roundup
Issued by NWS

Home | Current Version | Previous Version | Text Only | Print | Product List | Glossary Off
Versions: 1 2 3 4 5 6 7 8 9 10 11 12 13 14 15 16 17 18 19 20 21 22 23 24 25 26 27 28 29 30 31 32 33 34 35 36 37 38 39 40 41 42 43 44 45 46 47 48 49 50

000
ASUS45 KABQ 292310
RWRNM
NEW MEXICO REGIONAL WEATHER ROUNDUP
NATIONAL WEATHER SERVICE ALBUQUERQUE NM
500 PM MDT FRI MAY 29 2015

NOTE: "FAIR" MEANS FEW OR NO CLOUDS BELOW 12,000 FEET AGL WITH NO
       SIGNIFICANT WEATHER OR OBSTRUCTIONS TO VISION.

      THIS PRODUCT IS RELEASED AS TWO VERSIONS.  ONE VERSION NEAR
      THE TOP OF THE HOUR CONTAINING PRELIMINARY DATA FROM ALBUQUERQUE
      AND OTHER STATIONS.  A FINAL VERSION WITH ADDITIONAL DATA IS
      ISSUED ABOUT 10 MINUTES AFTER THE HOUR.

NMZ501-503-504-510>518-300000-
NORTHWEST PLATEAU/NORTHCENTRAL MOUNTAINS

CITY           SKY/WX    TMP DP  RH WIND       PRES   REMARKS
FARMINGTON     SUNNY     78  26  14 W15G23    30.11F
LOS ALAMOS     SUNNY     73  21  14 W9        30.20S
SANTA FE       MOSUNNY   78  21  12 W17G29    30.12F
TAOS           MOSUNNY   73  25  16 W16       30.17S
ANGEL FIRE     FAIR      65  31  28 W14G25    30.25S

$$
NMZ402-403-502-505>509-300000-
WESTCENTRAL MOUNTAINS/SOUTHWEST MOUNTAINS

CITY           SKY/WX    TMP DP  RH WIND       PRES   REMARKS
GALLUP         MOSUNNY   74  30  19 N9        30.19S
GRANTS         PTSUNNY   74  29  18 N15G25    30.21F
SILVER CITY      N/A     84  18   8 SW10G30   30.10F

$$
NMZ407-409-411-412-300000-
SOUTHERN DESERTS

CITY           SKY/WX    TMP DP  RH WIND       PRES   REMARKS
LORDSBURG      FAIR      90  23   9 SW5       30.01F
DEMING         SUNNY     91  19   7 W15G25    30.00F
LAS CRUCES     SUNNY     92  20   7 W15       30.00F
ALAMOGORDO     MOSUNNY   91  19   7 NW9G17    29.98S
T OR C         MOSUNNY   88  25  10 VRB7      30.00F

$$
NMZ519>523-300000-
CENTRAL VALLEYS/CENTRAL HIGHLANDS

CITY           SKY/WX    TMP DP  RH WIND       PRES   REMARKS
ALBUQUERQUE    PTSUNNY   76  34  21 W9        30.12F
DOUBLE EAGLE   PTSUNNY   75  36  23 SW14      30.14F
MORIARTY ARPT  FAIR      75  28  18 SW16      30.16S
CLINES CORNERS MOSUNNY   70  29  21 W24G35    30.18S
BELEN          FAIR      79  33  18 NE9G21    30.10S
SOCORRO        FAIR      83  28  13 NE5       30.05S

$$
NMZ524>526-539-540-300000-
SOUTHCENTRAL MOUNTAINS

CITY           SKY/WX    TMP DP  RH WIND       PRES   REMARKS
RUIDOSO        PTSUNNY   73  32  21 S6        30.19F

$$
NMZ527>531-300000-
NORTHEAST HIGHLANDS/NORTHEAST PLAINS

CITY           SKY/WX    TMP DP  RH WIND       PRES   REMARKS
LAS VEGAS      PTSUNNY   73  32  22 W17       30.14F
RATON          LGT RAIN  65  42  43 NE10      30.14R
CLAYTON        CLOUDY    67  53  61 NE12      30.15R

$$
NMZ532>537-300000-
EASTCENTRAL PLAINS

CITY           SKY/WX    TMP DP  RH WIND       PRES   REMARKS
TUCUMCARI      LGT RAIN  69  57  65 E7        30.04S
CANNON AFB     NOT AVBL
CLOVIS AIRPORT PTSUNNY   79  55  44 E13         N/A

$$
NMZ028-029-538-300000-
SOUTHEAST PLAINS

CITY           SKY/WX    TMP DP  RH WIND       PRES   REMARKS
ROSWELL        PTSUNNY   89  40  17 VRB3      29.96F
ARTESIA        MOSUNNY   90  43  19 VRB6G13   29.96S
CARLSBAD       SUNNY     90  52  27 E12G18    29.92F
HOBBS          SUNNY     84  54  34 E12       29.99S


$$



USA.gov is the U.S. government's official web portal to all federal, state and local government web resources and services.